QPF
0.10 0.17 0.28 0.53 0.47 0.32 0.28 0.24 0.18 0.12 0.08 0.06 0.03 0.01 0.01 0.01 0.01 0.00 0.00 0.00 0.00 0.00 0.00 0.00 0.00 0.00 0.00 0.00 0.00 0.00 0.00 0.00 0.00 0.00 0.00 0.01 0.01 0.01 0.01 0.02 0.02 0.03 0.06
0.08 0.11 0.19 0.32 0.31 0.22 0.19 0.19 0.15 0.09 0.05 0.04 0.02 0.00 0.00 0.00 0.00 0.00 0.00 0.00 0.00 0.00 0.00 0.00 0.00 0.00 0.00 0.00 0.00 0.00 0.00 0.00 0.00 0.00 0.00 0.00 0.01 0.01 0.01 0.01 0.02 0.02 0.02
0.05 0.07 0.13 0.19 0.20 0.18 0.17 0.17 0.15 0.10 0.05 0.02 0.01 0.00 0.01 0.01 0.00 0.00 0.00 0.00 0.00 0.00 0.00 0.00 0.00 0.00 0.00 0.00 0.00 0.00 0.00 0.00 0.00 0.00 0.00 0.00 0.01 0.01 0.01 0.01 0.01 0.01 0.00
0.04 0.06 0.08 0.10 0.13 0.14 0.14 0.16 0.17 0.11 0.06 0.03 0.02 0.01 0.00 0.01 0.00 0.00 0.00 0.00 0.00 0.00 0.00 0.00 0.00 0.00 0.00 0.00 0.00 0.00 0.00 0.00 0.00 0.00 0.00 0.00 0.00 0.00 0.00 0.00 0.00 0.00 0.00
0.03 0.04 0.06 0.07 0.08 0.11 0.12 0.14 0.15 0.10 0.08 0.04 0.02 0.02 0.01 0.01 0.01 0.01 0.00 0.00 0.00 0.00 0.00 0.00 0.00 0.00 0.00 0.00 0.00 0.00 0.00 0.00 0.00 0.00 0.00 0.00 0.00 0.00 0.00 0.00 0.00 0.00 0.00
0.03 0.04 0.05 0.04 0.06 0.08 0.10 0.10 0.10 0.12 0.10 0.06 0.03 0.03 0.02 0.01 0.01 0.01 0.00 0.00 0.00 0.00 0.00 0.00 0.00 0.00 0.00 0.00 0.00 0.00 0.00 0.00 0.00 0.00 0.00 0.00 0.00 0.00 0.00 0.00 0.00 0.00 0.00
0.02 0.02 0.02 0.02 0.04 0.06 0.07 0.08 0.08 0.09 0.09 0.07 0.05 0.03 0.02 0.01 0.01 0.01 0.00 0.00 0.00 0.00 0.00 0.00 0.00 0.00 0.00 0.00 0.00 0.00 0.00 0.00 0.00 0.00 0.00 0.00 0.00 0.00 0.00 0.00 0.00 0.00 0.00
0.01 0.01 0.01 0.02 0.04 0.05 0.06 0.06 0.07 0.08 0.08 0.05 0.04 0.03 0.02 0.01 0.01 0.00 0.00 0.00 0.00 0.00 0.00 0.00 0.00 0.00 0.00 0.00 0.00 0.00 0.00 0.00 0.00 0.00 0.00 0.00 0.00 0.00 0.00 0.00 0.00 0.00 0.00
0.01 0.00 0.01 0.02 0.03 0.03 0.04 0.04 0.05 0.06 0.07 0.05 0.04 0.02 0.02 0.01 0.01 0.01 0.00 0.00 0.00 0.00 0.00 0.00 0.00 0.00 0.00 0.00 0.00 0.00 0.00 0.00 0.00 0.00 0.00 0.00 0.00 0.00 0.00 0.00 0.00 0.00 0.00
0.01 0.01 0.01 0.01 0.01 0.02 0.03 0.04 0.05 0.04 0.05 0.04 0.03 0.02 0.03 0.01 0.01 0.01 0.00 0.01 0.01 0.00 0.01 0.00 0.00 0.00 0.00 0.00 0.00 0.00 0.00 0.00 0.00 0.00 0.00 0.00 0.00 0.00 0.00 0.00 0.00 0.00 0.00
0.01 0.01 0.02 0.01 0.01 0.03 0.05 0.05 0.05 0.04 0.03 0.03 0.03 0.02 0.02 0.01 0.01 0.01 0.00 0.01 0.01 0.01 0.01 0.01 0.01 0.00 0.00 0.00 0.00 0.00 0.00 0.00 0.00 0.00 0.00 0.00 0.00 0.00 0.00 0.00 0.00 0.00 0.00
0.02 0.02 0.02 0.02 0.02 0.05 0.06 0.07 0.06 0.04 0.02 0.02 0.02 0.02 0.02 0.02 0.02 0.02 0.02 0.02 0.03 0.03 0.03 0.03 0.04 0.02 0.01 0.01 0.01 0.01 0.00 0.00 0.00 0.00 0.00 0.00 0.00 0.00 0.00 0.00 0.00 0.00 0.00
0.02 0.02 0.03 0.07 0.06 0.05 0.07 0.09 0.07 0.05 0.04 0.04 0.05 0.04 0.04 0.05 0.04 0.05 0.05 0.07 0.07 0.08 0.07 0.07 0.07 0.06 0.05 0.04 0.03 0.03 0.02 0.01 0.00 0.00 0.00 0.00 0.00 0.00 0.00 0.00 0.00 0.00 0.00
0.02 0.02 0.03 0.06 0.06 0.05 0.06 0.07 0.07 0.08 0.09 0.12 0.15 0.15 0.13 0.15 0.16 0.13 0.14 0.15 0.15 0.14 0.13 0.14 0.15 0.12 0.10 0.10 0.07 0.05 0.04 0.02 0.02 0.02 0.01 0.01 0.01 0.00 0.00 0.00 0.00 0.01 0.01
0.03 0.04 0.05 0.05 0.09 0.10 0.10 0.11 0.13 0.15 0.21 0.24 0.26 0.24 0.20 0.20 0.22 0.24 0.25 0.23 0.24 0.25 0.27 0.25 0.22 0.20 0.19 0.17 0.16 0.13 0.11 0.08 0.06 0.06 0.05 0.03 0.03 0.03 0.03 0.03 0.03 0.03 0.03
0.05 0.05 0.08 0.12 0.14 0.16 0.19 0.23 0.25 0.28 0.38 0.43 0.44 0.46 0.46 0.45 0.40 0.36 0.37 0.40 0.40 0.39 0.36 0.34 0.32 0.31 0.26 0.23 0.22 0.20 0.17 0.14 0.12 0.10 0.09 0.09 0.09 0.07 0.07 0.06 0.07 0.07 0.06
0.04 0.06 0.08 0.12 0.16 0.19 0.21 0.28 0.34 0.37 0.37 0.38 0.38 0.40 0.42 0.40 0.37 0.37 0.37 0.41 0.44 0.43 0.40 0.41 0.40 0.39 0.35 0.28 0.24 0.21 0.18 0.15 0.13 0.12 0.10 0.09 0.08 0.08 0.08 0.08 0.08 0.06 0.06
0.04 0.05 0.07 0.10 0.14 0.17 0.21 0.26 0.29 0.26 0.26 0.26 0.21 0.17 0.16 0.16 0.16 0.19 0.23 0.26 0.31 0.36 0.36 0.35 0.28 0.24 0.22 0.21 0.19 0.17 0.16 0.15 0.14 0.13 0.12 0.10 0.07 0.07 0.07 0.06 0.05 0.03 0.03
0.05 0.05 0.06 0.08 0.09 0.10 0.12 0.13 0.14 0.13 0.13 0.12 0.12 0.08 0.06 0.05 0.05 0.06 0.10 0.15 0.19 0.22 0.21 0.21 0.19 0.16 0.15 0.17 0.16 0.15 0.14 0.13 0.12 0.12 0.11 0.09 0.06 0.04 0.03 0.03 0.02 0.01 0.01
0.03 0.03 0.04 0.04 0.04 0.04 0.04 0.05 0.06 0.07 0.07 0.07 0.07 0.05 0.04 0.04 0.05 0.07 0.08 0.08 0.09 0.10 0.10 0.11 0.10 0.10 0.12 0.13 0.12 0.13 0.12 0.09 0.08 0.08 0.08 0.08 0.06 0.05 0.04 0.02 0.02 0.01 0.01
0.02 0.02 0.02 0.02 0.02 0.02 0.01 0.01 0.02 0.02 0.02 0.02 0.02 0.02 0.02 0.03 0.03 0.04 0.04 0.03 0.04 0.04 0.04 0.03 0.03 0.04 0.05 0.05 0.06 0.07 0.07 0.08 0.07 0.07 0.06 0.05 0.04 0.02 0.02 0.01 0.01 0.01 0.01
0.01 0.01 0.01 0.01 0.00 0.00 0.00 0.00 0.00 0.00 0.01 0.01 0.01 0.01 0.00 0.00 0.00 0.00 0.01 0.01 0.01 0.01 0.01 0.01 0.01 0.01 0.01 0.01 0.01 0.02 0.02 0.02 0.02 0.02 0.02 0.02 0.01 0.01 0.01 0.00 0.00 0.00 0.00
0.00 0.00 0.00 0.00 0.00 0.00 0.00 0.00 0.00 0.00 0.00 0.00 0.00 0.00 0.00 0.00 0.00 0.00 0.00 0.00 0.00 0.00 0.00 0.00 0.00 0.00 0.00 0.00 0.00 0.00 0.00 0.00 0.00 0.01 0.01 0.01 0.01 0.01 0.01 0.00 0.01 0.00 0.00
0.00 0.00 0.00 0.00 0.00 0.00 0.00 0.00 0.00 0.00 0.00 0.00 0.00 0.00 0.00 0.00 0.00 0.00 0.00 0.00 0.00 0.00 0.00 0.00 0.00 0.00 0.00 0.00 0.00 0.00 0.00 0.00 0.00 0.00 0.00 0.00 0.00 0.00 0.00 0.00 0.00 0.00 0.01
0.00 0.00 0.00 0.00 0.00 0.00 0.00 0.00 0.00 0.00 0.00 0.00 0.00 0.00 0.00 0.00 0.00 0.00 0.00 0.00 0.00 0.00 0.00 0.00 0.00 0.00 0.00 0.00 0.00 0.00 0.00 0.00 0.00 0.00 0.00 0.00 0.00 0.00 0.00 0.00 0.00 0.00 0.00
0.00 0.00 0.00 0.00 0.00 0.00 0.00 0.00 0.00 0.00 0.00 0.00 0.00 0.00 0.00 0.00 0.00 0.00 0.00 0.00 0.00 0.00 0.00 0.00 0.00 0.00 0.00 0.00 0.00 0.00 0.00 0.00 0.00 0.00 0.00 0.00 0.00 0.00 0.00 0.00 0.00 0.00 0.01
MSLP
1009.42 1009.72 1010.06 1010.41 1010.74 1011.09 1011.47 1011.92 1012.46 1013.10 1013.82 1014.56 1015.27 1015.88 1016.35 1016.64 1016.77 1016.76 1016.67 1016.56 1016.48 1016.47 1016.55 1016.72 1016.94 1017.20 1017.46 1017.70 1017.91 1018.10 1018.28 1018.46 1018.64 1018.82 1018.99 1019.12 1019.19 1019.18 1019.08 1018.92 1018.71 1018.50 1018.32
1009.72 1010.05 1010.40 1010.72 1011.00 1011.26 1011.55 1011.93 1012.42 1013.04 1013.78 1014.57 1015.34 1016.02 1016.55 1016.87 1017.01 1016.98 1016.86 1016.72 1016.62 1016.61 1016.70 1016.89 1017.14 1017.43 1017.70 1017.94 1018.13 1018.29 1018.43 1018.57 1018.74 1018.92 1019.11 1019.27 1019.38 1019.41 1019.33 1019.17 1018.93 1018.67 1018.41
1010.05 1010.41 1010.77 1011.07 1011.31 1011.51 1011.72 1012.01 1012.44 1013.03 1013.76 1014.57 1015.39 1016.12 1016.69 1017.05 1017.20 1017.18 1017.05 1016.90 1016.79 1016.77 1016.87 1017.07 1017.35 1017.64 1017.91 1018.13 1018.30 1018.42 1018.53 1018.64 1018.80 1018.98 1019.20 1019.40 1019.56 1019.64 1019.61 1019.47 1019.23 1018.93 1018.63
1010.38 1010.77 1011.15 1011.46 1011.68 1011.83 1011.98 1012.20 1012.56 1013.09 1013.78 1014.58 1015.40 1016.15 1016.75 1017.14 1017.31 1017.31 1017.19 1017.05 1016.94 1016.93 1017.04 1017.25 1017.53 1017.82 1018.08 1018.28 1018.42 1018.51 1018.58 1018.68 1018.82 1019.02 1019.26 1019.52 1019.74 1019.87 1019.90 1019.79 1019.57 1019.27 1018.93
1010.69 1011.13 1011.55 1011.89 1012.11 1012.24 1012.33 1012.48 1012.77 1013.22 1013.84 1014.59 1015.37 1016.11 1016.71 1017.11 1017.31 1017.33 1017.24 1017.12 1017.03 1017.04 1017.16 1017.38 1017.65 1017.94 1018.19 1018.37 1018.49 1018.55 1018.60 1018.68 1018.82 1019.03 1019.30 1019.60 1019.87 1020.07 1020.15 1020.10 1019.92 1019.63 1019.28
1010.98 1011.46 1011.94 1012.32 1012.56 1012.68 1012.74 1012.83 1013.03 1013.39 1013.92 1014.58 1015.30 1015.98 1016.56 1016.96 1017.17 1017.22 1017.16 1017.07 1017.02 1017.05 1017.19 1017.42 1017.70 1017.98 1018.22 1018.40 1018.50 1018.55 1018.59 1018.66 1018.80 1019.02 1019.31 1019.63 1019.95 1020.20 1020.34 1020.34 1020.20 1019.94 1019.61
1011.20 1011.74 1012.27 1012.71 1012.98 1013.11 1013.16 1013.19 1013.31 1013.57 1013.99 1014.54 1015.16 1015.77 1016.30 1016.68 1016.89 1016.96 1016.94 1016.89 1016.88 1016.94 1017.10 1017.34 1017.63 1017.92 1018.16 1018.33 1018.44 1018.49 1018.53 1018.60 1018.74 1018.96 1019.26 1019.60 1019.94 1020.23 1020.41 1020.46 1020.37 1020.16 1019.86
1011.32 1011.91 1012.51 1012.99 1013.31 1013.46 1013.49 1013.49 1013.54 1013.71 1014.02 1014.45 1014.97 1015.49 1015.95 1016.30 1016.50 1016.59 1016.60 1016.59 1016.61 1016.70 1016.89 1017.15 1017.45 1017.74 1017.99 1018.18 1018.29 1018.36 1018.41 1018.49 1018.63 1018.85 1019.14 1019.48 1019.83 1020.13 1020.34 1020.43 1020.39 1020.23 1019.98
1011.31 1011.95 1012.59 1013.12 1013.47 1013.65 1013.68 1013.66 1013.66 1013.76 1013.98 1014.31 1014.73 1015.17 1015.56 1015.87 1016.06 1016.16 1016.19 1016.21 1016.25 1016.37 1016.57 1016.84 1017.14 1017.45 1017.71 1017.92 1018.06 1018.15 1018.22 1018.32 1018.46 1018.67 1018.95 1019.27 1019.60 1019.89 1020.11 1020.23 1020.23 1020.13 1019.94
1011.17 1011.83 1012.49 1013.05 1013.43 1013.63 1013.69 1013.66 1013.65 1013.70 1013.86 1014.13 1014.48 1014.85 1015.20 1015.47 1015.64 1015.74 1015.78 1015.81 1015.87 1015.99 1016.19 1016.45 1016.76 1017.07 1017.34 1017.57 1017.74 1017.86 1017.96 1018.07 1018.22 1018.42 1018.67 1018.96 1019.26 1019.53 1019.74 1019.87 1019.91 1019.86 1019.73
1010.92 1011.59 1012.25 1012.81 1013.20 1013.42 1013.50 1013.50 1013.50 1013.56 1013.71 1013.95 1014.26 1014.60 1014.91 1015.15 1015.32 1015.40 1015.44 1015.46 1015.51 1015.62 1015.79 1016.04 1016.32 1016.62 1016.91 1017.15 1017.34 1017.50 1017.63 1017.76 1017.92 1018.11 1018.33 1018.58 1018.83 1019.07 1019.26 1019.39 1019.44 1019.44 1019.37
1010.65 1011.30 1011.93 1012.46 1012.84 1013.07 1013.18 1013.23 1013.27 1013.38 1013.56 1013.82 1014.13 1014.46 1014.76 1014.98 1015.13 1015.20 1015.21 1015.21 1015.23 1015.30 1015.44 1015.64 1015.89 1016.17 1016.44 1016.69 1016.91 1017.09 1017.25 1017.40 1017.56 1017.74 1017.94 1018.15 1018.36 1018.55 1018.71 1018.83 1018.90 1018.93 1018.91
1010.45 1011.06 1011.63 1012.11 1012.47 1012.70 1012.84 1012.94 1013.06 1013.23 1013.47 1013.78 1014.12 1014.46 1014.76 1014.98 1015.10 1015.15 1015.13 1015.09 1015.06 1015.08 1015.15 1015.30 1015.50 1015.74 1015.99 1016.23 1016.46 1016.66 1016.84 1017.01 1017.18 1017.36 1017.53 1017.71 1017.88 1018.03 1018.16 1018.26 1018.33 1018.37 1018.39
1010.41 1010.95 1011.46 1011.88 1012.19 1012.42 1012.59 1012.74 1012.93 1013.18 1013.49 1013.86 1014.24 1014.61 1014.91 1015.11 1015.22 1015.23 1015.17 1015.08 1014.99 1014.94 1014.96 1015.04 1015.18 1015.37 1015.58 1015.81 1016.03 1016.24 1016.44 1016.63 1016.81 1016.98 1017.14 1017.29 1017.43 1017.55 1017.65 1017.73 1017.79 1017.83 1017.87
1010.57 1011.06 1011.49 1011.84 1012.11 1012.33 1012.51 1012.72 1012.97 1013.29 1013.66 1014.08 1014.49 1014.86 1015.16 1015.35 1015.42 1015.39 1015.29 1015.15 1015.01 1014.90 1014.84 1014.86 1014.94 1015.08 1015.25 1015.45 1015.66 1015.87 1016.08 1016.28 1016.46 1016.63 1016.79 1016.93 1017.05 1017.14 1017.21 1017.27 1017.31 1017.34 1017.38
1010.95 1011.40 1011.77 1012.06 1012.29 1012.48 1012.68 1012.91 1013.21 1013.57 1013.98 1014.41 1014.83 1015.19 1015.46 1015.61 1015.65 1015.58 1015.43 1015.25 1015.07 1014.91 1014.81 1014.77 1014.81 1014.90 1015.04 1015.21 1015.40 1015.60 1015.80 1016.00 1016.19 1016.36 1016.52 1016.65 1016.75 1016.82 1016.87 1016.90 1016.92 1016.93 1016.93
1011.51 1011.94 1012.27 1012.53 1012.72 1012.90 1013.10 1013.33 1013.64 1014.00 1014.41 1014.83 1015.21 1015.53 1015.75 1015.86 1015.85 1015.74 1015.57 1015.36 1015.15 1014.98 1014.85 1014.79 1014.79 1014.85 1014.96 1015.10 1015.26 1015.45 1015.64 1015.83 1016.01 1016.19 1016.34 1016.46 1016.56 1016.61 1016.64 1016.64 1016.62 1016.59 1016.55
1012.17 1012.61 1012.94 1013.18 1013.37 1013.53 1013.71 1013.94 1014.22 1014.56 1014.92 1015.27 1015.59 1015.84 1015.99 1016.04 1015.99 1015.85 1015.67 1015.46 1015.26 1015.10 1014.98 1014.92 1014.92 1014.96 1015.05 1015.16 1015.30 1015.46 1015.62 1015.80 1015.97 1016.13 1016.28 1016.39 1016.47 1016.52 1016.52 1016.48 1016.42 1016.33 1016.23
1012.84 1013.33 1013.69 1013.94 1014.13 1014.29 1014.45 1014.65 1014.89 1015.16 1015.44 1015.71 1015.94 1016.10 1016.17 1016.17 1016.08 1015.94 1015.76 1015.59 1015.43 1015.30 1015.22 1015.19 1015.20 1015.24 1015.32 1015.41 1015.52 1015.64 1015.78 1015.92 1016.07 1016.20 1016.33 1016.43 1016.49 1016.51 1016.48 1016.41 1016.29 1016.13 1015.95
1013.45 1014.00 1014.41 1014.70 1014.91 1015.07 1015.22 1015.38 1015.56 1015.75 1015.94 1016.11 1016.24 1016.31 1016.32 1016.26 1016.16 1016.03 1015.89 1015.77 1015.67 1015.61 1015.59 1015.60 1015.64 1015.70 1015.77 1015.84 1015.92 1016.00 1016.09 1016.19 1016.29 1016.39 1016.48 1016.55 1016.58 1016.57 1016.50 1016.37 1016.19 1015.97 1015.70
1013.96 1014.57 1015.04 1015.38 1015.62 1015.80 1015.94 1016.06 1016.18 1016.30 1016.40 1016.47 1016.51 1016.51 1016.47 1016.39 1016.29 1016.19 1016.11 1016.05 1016.03 1016.05 1016.10 1016.16 1016.24 1016.31 1016.37 1016.42 1016.46 1016.49 1016.53 1016.57 1016.61 1016.66 1016.70 1016.72 1016.70 1016.64 1016.53 1016.34 1016.10 1015.80 1015.45
1014.35 1015.02 1015.55 1015.93 1016.21 1016.41 1016.54 1016.65 1016.72 1016.77 1016.80 1016.81 1016.79 1016.74 1016.67 1016.59 1016.52 1016.47 1016.45 1016.47 1016.53 1016.62 1016.73 1016.84 1016.94 1017.01 1017.06 1017.08 1017.08 1017.06 1017.03 1017.00 1016.98 1016.96 1016.93 1016.89 1016.81 1016.69 1016.52 1016.28 1015.97 1015.60 1015.18
1014.65 1015.36 1015.93 1016.35 1016.66 1016.88 1017.02 1017.12 1017.17 1017.18 1017.17 1017.14 1017.09 1017.03 1016.96 1016.91 1016.88 1016.89 1016.94 1017.02 1017.15 1017.29 1017.44 1017.57 1017.68 1017.75 1017.77 1017.75 1017.70 1017.62 1017.52 1017.42 1017.32 1017.22 1017.11 1017.00 1016.85 1016.66 1016.43 1016.13 1015.77 1015.34 1014.87
1014.90 1015.62 1016.20 1016.65 1016.98 1017.22 1017.38 1017.48 1017.53 1017.54 1017.52 1017.49 1017.44 1017.40 1017.36 1017.36 1017.38 1017.44 1017.55 1017.68 1017.84 1018.01 1018.17 1018.31 1018.40 1018.43 1018.42 1018.35 1018.23 1018.09 1017.92 1017.75 1017.57 1017.39 1017.20 1017.01 1016.79 1016.53 1016.23 1015.87 1015.46 1015.00 1014.49
1015.13 1015.82 1016.39 1016.85 1017.20 1017.46 1017.64 1017.76 1017.82 1017.85 1017.86 1017.86 1017.85 1017.85 1017.87 1017.91 1017.99 1018.10 1018.23 1018.39 1018.56 1018.72 1018.86 1018.96 1019.01 1019.00 1018.92 1018.80 1018.63 1018.42 1018.19 1017.94 1017.69 1017.44 1017.17 1016.90 1016.60 1016.27 1015.91 1015.51 1015.06 1014.57 1014.04
1015.36 1016.00 1016.54 1016.99 1017.35 1017.63 1017.83 1017.98 1018.08 1018.15 1018.20 1018.25 1018.30 1018.36 1018.43 1018.53 1018.65 1018.79 1018.94 1019.09 1019.24 1019.36 1019.44 1019.48 1019.46 1019.39 1019.25 1019.07 1018.84 1018.58 1018.29 1017.99 1017.68 1017.35 1017.02 1016.67 1016.31 1015.92 1015.50 1015.06 1014.58 1014.08 1013.55
Thickness
5737 5734 5730 5731 5730 5733 5733 5734 5736 5737 5738 5737 5735 5733 5732 5733 5734 5735 5736 5737 5738 5738 5737 5735 5735 5734 5732 5731 5731 5730 5728 5726 5726 5723 5720 5722 5724 5724 5724 5724 5724 5723 5723
5734 5731 5729 5728 5728 5730 5731 5732 5734 5735 5736 5737 5736 5735 5733 5732 5733 5733 5734 5735 5736 5736 5735 5734 5733 5732 5731 5730 5729 5729 5726 5724 5725 5721 5715 5711 5714 5719 5723 5723 5723 5723 5723
5736 5732 5730 5728 5729 5729 5730 5732 5732 5734 5735 5736 5735 5733 5731 5729 5728 5729 5731 5733 5734 5734 5734 5733 5733 5732 5730 5728 5728 5728 5725 5722 5723 5723 5718 5710 5706 5711 5717 5721 5722 5722 5722
5737 5734 5732 5730 5729 5730 5732 5731 5730 5731 5733 5734 5733 5731 5728 5725 5727 5729 5730 5732 5732 5732 5732 5732 5732 5731 5730 5728 5728 5727 5725 5723 5720 5721 5721 5719 5716 5710 5708 5714 5718 5720 5720
5740 5737 5735 5733 5732 5732 5732 5731 5729 5730 5731 5732 5732 5731 5728 5728 5728 5728 5728 5729 5730 5731 5731 5731 5730 5729 5728 5727 5726 5725 5724 5723 5720 5719 5718 5717 5715 5714 5709 5705 5710 5713 5717
5744 5740 5738 5736 5734 5734 5732 5731 5729 5729 5731 5731 5730 5730 5728 5727 5726 5725 5725 5726 5727 5728 5728 5729 5728 5728 5727 5726 5725 5724 5723 5721 5720 5718 5717 5715 5713 5710 5708 5704 5704 5705 5710
5745 5741 5739 5736 5734 5734 5733 5731 5729 5729 5730 5730 5729 5730 5729 5728 5727 5726 5725 5724 5724 5725 5726 5727 5726 5726 5725 5725 5723 5721 5720 5720 5718 5716 5715 5714 5713 5711 5708 5704 5701 5701 5704
5747 5745 5742 5740 5737 5736 5735 5733 5731 5729 5729 5729 5729 5730 5730 5728 5728 5727 5726 5725 5725 5726 5727 5726 5725 5725 5724 5722 5721 5719 5718 5717 5716 5715 5713 5712 5711 5710 5708 5704 5699 5694 5694
5750 5748 5746 5743 5740 5739 5738 5737 5734 5732 5731 5730 5729 5729 5729 5729 5728 5728 5728 5727 5726 5726 5726 5725 5723 5722 5721 5720 5718 5716 5715 5714 5713 5711 5710 5708 5707 5706 5705 5703 5700 5693 5687
5753 5752 5750 5748 5746 5743 5741 5739 5737 5734 5732 5731 5730 5731 5730 5730 5729 5728 5727 5726 5726 5726 5725 5723 5721 5720 5718 5717 5714 5713 5712 5710 5708 5707 5705 5704 5703 5702 5700 5698 5696 5693 5688
5755 5754 5753 5752 5750 5746 5743 5740 5738 5735 5733 5732 5731 5731 5730 5729 5728 5727 5727 5727 5726 5725 5723 5721 5719 5717 5715 5713 5710 5708 5707 5704 5702 5702 5700 5699 5698 5696 5694 5693 5691 5688 5685
5758 5757 5757 5754 5750 5746 5744 5741 5739 5737 5735 5734 5732 5730 5729 5728 5726 5726 5726 5725 5724 5722 5721 5719 5716 5713 5711 5709 5707 5704 5703 5700 5697 5696 5695 5693 5693 5690 5689 5687 5685 5683 5681
5758 5757 5756 5753 5750 5747 5745 5742 5739 5737 5735 5733 5730 5727 5725 5724 5723 5723 5723 5721 5720 5718 5716 5714 5711 5709 5707 5704 5703 5700 5698 5696 5694 5692 5690 5688 5686 5684 5683 5681 5679 5678 5678
5755 5754 5751 5750 5748 5746 5744 5742 5739 5737 5734 5729 5726 5723 5721 5720 5719 5718 5717 5715 5714 5712 5710 5708 5706 5703 5701 5699 5697 5695 5693 5690 5689 5688 5686 5684 5682 5680 5678 5676 5675 5673 5671
5748 5747 5745 5743 5743 5740 5739 5737 5735 5732 5729 5724 5720 5718 5716 5715 5714 5712 5710 5709 5707 5706 5704 5702 5700 5697 5695 5693 5689 5687 5686 5684 5682 5681 5680 5680 5678 5676 5674 5672 5670 5667 5665
5740 5739 5737 5735 5734 5733 5731 5729 5726 5723 5720 5717 5713 5711 5709 5707 5705 5703 5702 5701 5699 5699 5697 5695 5693 5690 5688 5686 5683 5681 5679 5677 5675 5674 5673 5673 5671 5670 5668 5666 5665 5662 5659
5731 5729 5726 5725 5724 5723 5722 5718 5716 5714 5711 5707 5704 5702 5699 5696 5694 5693 5692 5691 5690 5689 5688 5686 5684 5680 5678 5676 5674 5672 5670 5668 5666 5664 5662 5662 5661 5658 5657 5655 5655 5653 5652
5721 5718 5716 5714 5712 5711 5710 5707 5705 5703 5699 5695 5692 5690 5688 5685 5683 5683 5681 5679 5678 5677 5675 5673 5671 5667 5665 5665 5664 5662 5659 5656 5653 5651 5650 5647 5645 5644 5642 5642 5641 5640 5640
5712 5709 5706 5704 5701 5699 5698 5696 5693 5690 5687 5683 5680 5679 5677 5674 5672 5671 5669 5667 5666 5663 5662 5660 5657 5655 5652 5652 5651 5649 5646 5642 5639 5638 5636 5634 5631 5629 5627 5626 5626 5627 5627
5703 5700 5697 5694 5690 5687 5687 5684 5679 5676 5673 5670 5669 5667 5665 5663 5661 5659 5658 5656 5654 5651 5650 5647 5644 5643 5640 5638 5637 5636 5632 5628 5625 5623 5620 5619 5617 5615 5612 5611 5610 5611 5613
5692 5690 5687 5682 5678 5676 5675 5670 5667 5663 5661 5660 5658 5656 5654 5652 5650 5648 5646 5644 5641 5638 5636 5633 5631 5629 5627 5625 5623 5621 5616 5612 5609 5607 5604 5603 5601 5600 5597 5595 5593 5594 5595
5682 5680 5677 5671 5667 5665 5664 5659 5655 5653 5652 5650 5648 5645 5644 5643 5640 5637 5635 5632 5629 5626 5623 5620 5617 5614 5611 5609 5607 5604 5601 5597 5594 5591 5588 5587 5585 5583 5581 5579 5578 5577 5576
5671 5669 5667 5662 5658 5655 5653 5649 5645 5644 5642 5639 5636 5634 5633 5631 5629 5626 5623 5620 5617 5614 5610 5606 5602 5598 5595 5592 5590 5587 5584 5581 5577 5574 5572 5570 5568 5566 5563 5561 5559 5557 5555
5661 5659 5656 5652 5647 5645 5643 5639 5637 5634 5632 5628 5625 5623 5620 5619 5617 5615 5612 5609 5605 5601 5597 5591 5586 5582 5578 5574 5571 5568 5565 5562 5558 5554 5552 5550 5548 5545 5543 5541 5538 5535 5533
5652 5650 5646 5641 5637 5634 5632 5629 5627 5624 5620 5617 5615 5612 5610 5607 5605 5602 5599 5596 5592 5588 5583 5577 5571 5566 5561 5557 5553 5549 5545 5541 5537 5534 5530 5527 5524 5522 5520 5517 5515 5513 5511
5643 5639 5635 5631 5627 5623 5620 5618 5616 5613 5609 5606 5603 5600 5597 5595 5592 5588 5583 5580 5577 5573 5568 5563 5556 5550 5545 5540 5536 5532 5527 5523 5520 5514 5509 5506 5503 5501 5499 5497 5495 5493 5491